Showing default

ZHUHAI-1 02, 42759

Orbit data source: Space-Track

ZHUHAI-1 02, 42759 is a payload satellite owned by Zhuhai Orbita (CN) in LEO that was launched on Thu, 15 Jun 2017 UTC via a CHANG ZHENG 4B launch vehicle from the Jiuquan Satellite Launch Center, China (JSC). Payload-class satellites include a variety of spacecraft equipped with specific instruments for various scientific and technological missions. These include communications satellites like Starlink; space stations such as the ISS; scientific satellites like the Hubble; Earth observation satellites from companies like Planet Labs, Umbra, and HawkEye 360; GPS; miniature CubeSats for education and research; and military/defense satellites.

Loading next visibility...
Identifier
42759, 2017-034B
Orbit
LEO
Country
Flag of CNCN / PRC
Related business
Manufacturer
Zhuhai Orbita
Mission
Operational Commercial Imaging
Bus & Motor
OVS-1, Unknown motor
Mass
50 kg wet, 50 kg dry
Launch date (UTC)
2017-06-15 (8 years ago)
Launch vehicle
CHANG ZHENG 4B
Launch site
Jiuquan Satellite Launch Center, China (JSC)
Object type
Payload
Rocket body
Debris
Shape & HBR
Box, 0.5 m
Radar Cross Section
0.375 m², Medium (>0.1 m² and < 1m²)

Expand to show TLE details & history
Last TLE update: 9 hours ago

TLE from 9 hours ago
0 ZHUHAI-1 02
1 42759U 17034B   25243.27666475  .00196349  00000-0  11099-2 0  9995
2 42759  43.0015 184.6506 0021593 160.4201 199.7503 15.77439523455594
Epoch: 2025-08-31T06:38Z
TLE epoch observation values (Epoch: 2025-08-31T06:38:23.834Z)
Latitude
0.00001°
Longitude
105.35238°
Altitude
351.119 km
Speed
7.692 km/s
True Right ascension
12h 18m 36s
True Declination
0° 00' 00"
Sunlit
Object was in daylight at epoch
Visualization orbit readout
Latitude
Unknown
Longitude
Unknown
Altitude
Unknown
Speed
Unknown
Apparent Right ascension
Unknown
Apparent Declination
Unknown
Sunlit
N/A
Visualization observer readout
Local Sidereal Time
07:43:09
Azimuth
Unknown
Elevation
Unknown
Doppler factor
Unknown
Orbital elements
Apogee altitude
354.191 km
Perigee altitude
325.179 km
Semi-major axis
6,717.822 km
Eccentricity
0.00216
Inclination
43.0015°
RAAN
184.6506°
Arg. of periapsis
160.4201°
True anomaly
199.6669°
Mean anomaly
199.7503°
Eccentric anomaly
199.70858°
Mean motion
3.94185 °/min
Orbital period
91.33 mins
BSTAR
0.0011099
Loading maneuver chart data...
Computing Atmospheric mass density...
Loading historical data...
Loading historical data...
Loading historical data...
Loading historical data...
Loading historical data...
Loading historical data...
Loading historical data...

Documentation

Showing up to 5 results
|